Time,TemperatureF,DewpointF,PressureIn,WindDirection,WindDirectionDegrees,WindSpeedMPH,WindSpeedGustMPH,Humidity,HourlyPrecipIn,Conditions,Clouds,dailyrainin,SolarRadiationWatts/m^2,SoftwareType,DateUTC
2013-05-19 00:00:00,75.3,71.2,29.88,SE,136,1.0,4.0,87,0.00,BKN,,0.00,0.0,WeatherDisplay:10.37,2013-05-19 05:00:00,
2013-05-19 00:10:00,75.3,71.5,29.88,SSE,151,0.0,3.0,88,0.00,BKN,,0.00,0.0,WeatherDisplay:10.37,2013-05-19 05:10:00,
2013-05-19 00:20:00,75.1,71.6,29.88,SSE,148,1.0,2.0,89,0.00,BKN,,0.00,0.0,WeatherDisplay:10.37,2013-05-19 05:20:00,
2013-05-19 00:30:00,75.0,71.9,29.88,SE,141,0.0,2.0,90,0.00,FEW,,0.00,0.0,WeatherDisplay:10.37,2013-05-19 05:30:00,
2013-05-19 00:40:00,74.8,72.0,29.88,SE,131,1.0,2.0,91,0.00,FEW,,0.00,0.0,WeatherDisplay:10.37,2013-05-19 05:40:00,
2013-05-19 00:50:00,74.6,71.8,29.88,SE,135,0.0,2.0,91,0.00,CLR,,0.00,0.0,WeatherDisplay:10.37,2013-05-19 05:50:00,
2013-05-19 01:00:00,74.6,72.1,29.88,SE,127,0.0,2.0,92,0.00,CLR,,0.00,0.0,WeatherDisplay:10.37,2013-05-19 06:00:00,
2013-05-19 01:10:00,74.6,72.1,29.87,SE,124,1.0,2.0,92,0.00,SCT,,0.00,0.0,WeatherDisplay:10.37,2013-05-19 06:10:00,
2013-05-19 01:20:00,74.3,71.9,29.88,SSE,151,0.0,2.0,92,0.00,SCT,,0.00,0.0,WeatherDisplay:10.37,2013-05-19 06:20:00,
2013-05-19 01:30:00,74.2,72.0,29.88,SE,142,0.0,1.0,93,0.00,BKN,,0.00,0.0,WeatherDisplay:10.37,2013-05-19 06:30:00,
2013-05-19 01:40:00,74.0,71.9,29.87,SE,139,0.0,1.0,93,0.00,BKN,,0.00,0.0,WeatherDisplay:10.37,2013-05-19 06:40:00,
2013-05-19 01:50:00,73.9,72.1,29.88,SE,135,0.0,2.0,94,0.00,FEW,,0.00,0.0,WeatherDisplay:10.37,2013-05-19 06:50:00,
2013-05-19 02:00:00,73.9,72.1,29.87,SSE,162,0.0,2.0,94,0.00,FEW,,0.00,0.0,WeatherDisplay:10.37,2013-05-19 07:00:00,
2013-05-19 02:10:00,73.8,72.0,29.87,SSE,150,0.0,2.0,94,0.00,CLR,,0.00,0.0,WeatherDisplay:10.37,2013-05-19 07:10:00,
2013-05-19 02:20:00,73.6,71.8,29.87,SE,139,0.0,2.0,94,0.00,CLR,,0.00,0.0,WeatherDisplay:10.37,2013-05-19 07:20:00,
2013-05-19 02:30:00,73.5,72.0,29.86,SE,140,0.0,1.0,95,0.00,CLR,,0.00,0.0,WeatherDisplay:10.37,2013-05-19 07:30:00,
2013-05-19 02:40:00,73.4,71.9,29.86,SE,142,0.0,1.0,95,0.00,CLR,,0.00,0.0,WeatherDisplay:10.37,2013-05-19 07:40:00,
2013-05-19 02:50:00,73.3,71.8,29.86,SSE,151,0.0,1.0,95,0.00,CLR,,0.00,0.0,WeatherDisplay:10.37,2013-05-19 07:50:00,
2013-05-19 03:00:00,73.3,71.8,29.87,SE,145,0.0,1.0,95,0.00,CLR,,0.00,0.0,WeatherDisplay:10.37,2013-05-19 08:00:00,
2013-05-19 03:10:00,73.3,71.8,29.86,SE,143,0.0,2.0,95,0.00,CLR,,0.00,0.0,WeatherDisplay:10.37,2013-05-19 08:10:00,
2013-05-19 03:20:00,73.3,71.8,29.86,SSE,148,0.0,1.0,95,0.00,CLR,,0.00,0.0,WeatherDisplay:10.37,2013-05-19 08:20:00,
2013-05-19 03:30:00,73.1,71.6,29.86,SE,129,0.0,1.0,95,0.00,CLR,,0.00,0.0,WeatherDisplay:10.37,2013-05-19 08:30:00,
2013-05-19 03:40:00,72.9,71.4,29.86,SE,130,0.0,0.0,95,0.00,CLR,,0.00,0.0,WeatherDisplay:10.37,2013-05-19 08:40:00,
2013-05-19 03:50:00,72.9,71.4,29.86,SE,130,1.0,2.0,95,0.00,SCT,,0.00,0.0,WeatherDisplay:10.37,2013-05-19 08:50:00,
2013-05-19 04:00:00,72.8,71.3,29.86,SE,139,0.0,2.0,95,0.00,SCT,,0.00,0.0,WeatherDisplay:10.37,2013-05-19 09:00:00,
2013-05-19 04:10:00,72.8,71.3,29.86,SE,139,0.0,1.0,95,0.00,FEW,,0.00,0.0,WeatherDisplay:10.37,2013-05-19 09:10:00,
2013-05-19 04:20:00,72.6,71.1,29.86,SSE,151,0.0,1.0,95,0.00,FEW,,0.00,0.0,WeatherDisplay:10.37,2013-05-19 09:20:00,
2013-05-19 04:30:00,72.5,71.0,29.87,SSE,153,0.0,0.0,95,0.00,CLR,,0.00,0.0,WeatherDisplay:10.37,2013-05-19 09:30:00,
2013-05-19 04:40:00,72.4,71.2,29.86,SE,141,1.0,2.0,96,0.00,CLR,,0.00,0.0,WeatherDisplay:10.37,2013-05-19 09:40:00,
2013-05-19 04:50:00,72.4,71.2,29.86,ESE,114,0.0,1.0,96,0.00,CLR,,0.00,0.0,WeatherDisplay:10.37,2013-05-19 09:50:00,
2013-05-19 05:00:00,72.3,71.1,29.86,ESE,121,0.0,1.0,96,0.00,CLR,,0.00,0.0,WeatherDisplay:10.37,2013-05-19 10:00:00,
2013-05-19 05:10:00,72.2,71.0,29.86,ESE,112,0.0,1.0,96,0.00,CLR,,0.00,0.0,WeatherDisplay:10.37,2013-05-19 10:10:00,
2013-05-19 05:20:00,72.2,71.0,29.86,SSE,152,0.0,1.0,96,0.00,CLR,,0.00,0.0,WeatherDisplay:10.37,2013-05-19 10:20:00,
2013-05-19 05:30:00,72.2,71.0,29.86,SE,139,0.0,1.0,96,0.00,FEW,,0.00,0.0,WeatherDisplay:10.37,2013-05-19 10:30:00,
2013-05-19 05:40:00,72.1,70.9,29.85,SE,145,0.0,3.0,96,0.00,FEW,,0.00,0.0,WeatherDisplay:10.37,2013-05-19 10:40:00,
2013-05-19 05:50:00,72.0,70.8,29.85,SE,144,0.0,2.0,96,0.00,CLR,,0.00,0.0,WeatherDisplay:10.37,2013-05-19 10:50:00,
2013-05-19 06:00:00,71.9,70.7,29.86,SE,145,0.0,1.0,96,0.00,CLR,,0.00,0.0,WeatherDisplay:10.37,2013-05-19 11:00:00,
2013-05-19 06:10:00,71.9,70.7,29.86,South,170,0.0,0.0,96,0.00,BKN,,0.00,0.0,WeatherDisplay:10.37,2013-05-19 11:10:00,
2013-05-19 06:20:00,72.0,70.8,29.87,SSW,204,0.0,0.0,96,0.00,BKN,,0.00,0.0,WeatherDisplay:10.37,2013-05-19 11:20:00,
2013-05-19 06:30:00,72.2,71.0,29.87,South,169,0.0,0.0,96,0.00,BKN,,0.00,0.0,WeatherDisplay:10.37,2013-05-19 11:30:00,
2013-05-19 06:40:00,72.5,71.3,29.88,SSE,154,0.0,3.0,96,0.00,BKN,,0.00,0.0,WeatherDisplay:10.37,2013-05-19 11:40:00,
2013-05-19 06:50:00,72.9,71.7,29.88,South,190,1.0,4.0,96,0.00,BKN,,0.00,0.0,WeatherDisplay:10.37,2013-05-19 11:50:00,
2013-05-19 07:00:00,73.2,71.7,29.88,South,188,0.0,2.0,95,0.00,BKN,,0.00,0.0,WeatherDisplay:10.37,2013-05-19 12:00:00,
2013-05-19 07:10:00,73.5,72.0,29.90,SW,224,1.0,2.0,95,0.00,OVC,,0.00,0.0,WeatherDisplay:10.37,2013-05-19 12:10:00,
2013-05-19 07:20:00,73.8,72.0,29.90,SSW,192,1.0,3.0,94,0.00,OVC,,0.00,0.0,WeatherDisplay:10.37,2013-05-19 12:20:00,
2013-05-19 07:30:00,74.2,72.4,29.90,SSE,163,1.0,3.0,94,0.00,BKN,,0.00,0.0,WeatherDisplay:10.37,2013-05-19 12:30:00,
2013-05-19 07:40:00,74.7,72.6,29.90,South,187,1.0,4.0,93,0.00,BKN,,0.00,0.0,WeatherDisplay:10.37,2013-05-19 12:40:00,
2013-05-19 07:50:00,75.5,72.7,29.90,SSW,207,2.0,4.0,91,0.00,BKN,,0.00,0.0,WeatherDisplay:10.37,2013-05-19 12:50:00,
2013-05-19 08:00:00,76.6,73.5,29.90,SSW,206,1.0,4.0,90,0.00,BKN,,0.00,0.0,WeatherDisplay:10.37,2013-05-19 13:00:00,
2013-05-19 08:10:00,77.3,73.4,29.90,SSW,200,2.0,6.0,88,0.00,OVC,,0.00,0.0,WeatherDisplay:10.37,2013-05-19 13:10:00,
2013-05-19 08:20:00,78.3,74.1,29.90,SSW,196,2.0,4.0,87,0.00,OVC,,0.00,0.0,WeatherDisplay:10.37,2013-05-19 13:20:00,
2013-05-19 08:30:00,78.9,74.0,29.91,SSW,198,3.0,5.0,85,0.00,BKN,,0.00,0.0,WeatherDisplay:10.37,2013-05-19 13:30:00,
2013-05-19 08:40:00,79.4,73.4,29.90,SSW,201,3.0,6.0,82,0.00,BKN,,0.00,0.0,WeatherDisplay:10.37,2013-05-19 13:40:00,
2013-05-19 08:50:00,79.7,73.7,29.91,SSW,195,2.0,8.0,82,0.00,OVC,,0.00,0.0,WeatherDisplay:10.37,2013-05-19 13:50:00,
2013-05-19 09:00:00,79.8,73.1,29.91,SW,218,5.0,10.0,80,0.00,OVC,,0.00,0.0,WeatherDisplay:10.37,2013-05-19 14:00:00,
2013-05-19 09:10:00,80.2,73.4,29.91,SW,222,3.0,10.0,80,0.00,OVC,,0.00,0.0,WeatherDisplay:10.37,2013-05-19 14:10:00,
2013-05-19 09:20:00,80.6,73.5,29.91,SW,219,3.0,10.0,79,0.00,OVC,,0.00,0.0,WeatherDisplay:10.37,2013-05-19 14:20:00,
2013-05-19 09:30:00,81.4,74.2,29.91,SW,214,2.0,6.0,79,0.00,BKN,,0.00,0.0,WeatherDisplay:10.37,2013-05-19 14:30:00,
2013-05-19 09:40:00,82.0,74.4,29.91,SW,227,3.0,8.0,78,0.00,BKN,,0.00,0.0,WeatherDisplay:10.37,2013-05-19 14:40:00,
2013-05-19 09:50:00,82.1,73.8,29.90,SW,219,3.0,8.0,76,0.00,BKN,,0.00,0.0,WeatherDisplay:10.37,2013-05-19 14:50:00,
2013-05-19 10:00:00,82.3,73.6,29.90,SSW,207,5.0,7.0,75,0.00,BKN,,0.00,0.0,WeatherDisplay:10.37,2013-05-19 15:00:00,
2013-05-19 10:10:00,82.8,73.3,29.90,SSW,210,5.0,9.0,73,0.00,BKN,,0.00,0.0,WeatherDisplay:10.37,2013-05-19 15:10:00,
2013-05-19 10:20:00,83.2,73.6,29.90,SW,217,5.0,10.0,73,0.00,BKN,,0.00,0.0,WeatherDisplay:10.37,2013-05-19 15:20:00,
2013-05-19 10:30:00,83.6,73.6,29.90,SW,233,5.0,9.0,72,0.00,SCT,,0.00,0.0,WeatherDisplay:10.37,2013-05-19 15:30:00,
2013-05-19 10:40:00,83.7,73.3,29.91,SW,217,3.0,8.0,71,0.00,SCT,,0.00,0.0,WeatherDisplay:10.37,2013-05-19 15:40:00,
2013-05-19 10:50:00,84.3,73.4,29.90,SSW,204,3.0,8.0,70,0.00,CLR,,0.00,0.0,WeatherDisplay:10.37,2013-05-19 15:50:00,
2013-05-19 11:00:00,84.3,72.1,29.90,SSW,212,6.0,12.0,67,0.00,CLR,,0.00,0.0,WeatherDisplay:10.37,2013-05-19 16:00:00,
2013-05-19 11:10:00,84.9,71.8,29.90,SSW,213,5.0,10.0,65,0.00,CLR,,0.00,0.0,WeatherDisplay:10.37,2013-05-19 16:10:00,
2013-05-19 11:20:00,84.8,71.3,29.90,SSW,200,3.0,8.0,64,0.00,CLR,,0.00,0.0,WeatherDisplay:10.37,2013-05-19 16:20:00,
2013-05-19 11:30:00,85.4,72.3,29.90,SW,221,6.0,8.0,65,0.00,CLR,,0.00,0.0,WeatherDisplay:10.37,2013-05-19 16:30:00,
2013-05-19 11:40:00,84.9,69.5,29.90,SSW,209,3.0,12.0,60,0.00,CLR,,0.00,0.0,WeatherDisplay:10.37,2013-05-19 16:40:00,
2013-05-19 11:50:00,85.2,70.7,29.90,SW,220,5.0,9.0,62,0.00,CLR,,0.00,0.0,WeatherDisplay:10.37,2013-05-19 16:50:00,
2013-05-19 12:00:00,85.4,69.9,29.90,SW,214,5.0,9.0,60,0.00,CLR,,0.00,0.0,WeatherDisplay:10.37,2013-05-19 17:00:00,
2013-05-19 12:10:00,86.0,69.5,29.89,SW,223,5.0,8.0,58,0.00,CLR,,0.00,0.0,WeatherDisplay:10.37,2013-05-19 17:10:00,
2013-05-19 12:20:00,85.9,68.4,29.89,SW,214,5.0,10.0,56,0.00,CLR,,0.00,0.0,WeatherDisplay:10.37,2013-05-19 17:20:00,
2013-05-19 12:30:00,85.8,68.3,29.89,SW,228,5.0,12.0,56,0.00,CLR,,0.00,0.0,WeatherDisplay:10.37,2013-05-19 17:30:00,
2013-05-19 12:40:00,86.2,67.6,29.88,SW,227,8.0,12.0,54,0.00,CLR,,0.00,0.0,WeatherDisplay:10.37,2013-05-19 17:40:00,
2013-05-19 12:50:00,86.5,69.4,29.88,SW,229,3.0,12.0,57,0.00,CLR,,0.00,0.0,WeatherDisplay:10.37,2013-05-19 17:50:00,
2013-05-19 13:00:00,86.9,70.3,29.87,SSW,213,5.0,12.0,58,0.00,CLR,,0.00,0.0,WeatherDisplay:10.37,2013-05-19 18:00:00,
2013-05-19 13:10:00,87.0,67.8,29.87,SW,215,3.0,12.0,53,0.00,CLR,,0.00,0.0,WeatherDisplay:10.37,2013-05-19 18:10:00,
2013-05-19 13:20:00,87.8,70.7,29.86,SSW,203,5.0,9.0,57,0.00,CLR,,0.00,0.0,WeatherDisplay:10.37,2013-05-19 18:20:00,
2013-05-19 13:30:00,87.9,71.2,29.85,SW,216,2.0,8.0,58,0.00,CLR,,0.00,0.0,WeatherDisplay:10.37,2013-05-19 18:30:00,
2013-05-19 13:40:00,88.8,70.6,29.85,South,173,5.0,9.0,55,0.00,CLR,,0.00,0.0,WeatherDisplay:10.37,2013-05-19 18:40:00,
2013-05-19 13:50:00,89.1,72.4,29.84,SSW,192,3.0,10.0,58,0.00,CLR,,0.00,0.0,WeatherDisplay:10.37,2013-05-19 18:50:00,
2013-05-19 14:00:00,88.2,68.9,29.84,SSW,205,5.0,8.0,53,0.00,CLR,,0.00,0.0,WeatherDisplay:10.37,2013-05-19 19:00:00,
2013-05-19 14:10:00,87.8,71.2,29.84,SSW,203,5.0,7.0,58,0.00,CLR,,0.00,0.0,WeatherDisplay:10.37,2013-05-19 19:10:00,
2013-05-19 14:20:00,87.5,70.4,29.85,SSW,194,3.0,8.0,57,0.00,CLR,,0.00,0.0,WeatherDisplay:10.37,2013-05-19 19:20:00,
2013-05-19 14:30:00,87.4,70.8,29.84,SSW,197,5.0,7.0,58,0.00,CLR,,0.00,0.0,WeatherDisplay:10.37,2013-05-19 19:30:00,
2013-05-19 14:40:00,88.0,70.8,29.84,South,172,5.0,8.0,57,0.00,CLR,,0.00,0.0,WeatherDisplay:10.37,2013-05-19 19:40:00,
2013-05-19 14:50:00,87.7,71.6,29.84,SSW,202,3.0,7.0,59,0.00,CLR,,0.00,0.0,WeatherDisplay:10.37,2013-05-19 19:50:00,
2013-05-19 15:00:00,87.4,70.8,29.84,SSW,204,2.0,7.0,58,0.00,CLR,,0.00,0.0,WeatherDisplay:10.37,2013-05-19 20:00:00,
2013-05-19 15:10:00,88.1,72.5,29.84,SSE,167,2.0,6.0,60,0.00,CLR,,0.00,0.0,WeatherDisplay:10.37,2013-05-19 20:10:00,
2013-05-19 15:20:00,88.0,70.3,29.84,South,173,3.0,8.0,56,0.00,CLR,,0.00,0.0,WeatherDisplay:10.37,2013-05-19 20:20:00,
2013-05-19 15:30:00,87.7,70.1,29.83,SSW,202,3.0,6.0,56,0.00,CLR,,0.00,0.0,WeatherDisplay:10.37,2013-05-19 20:30:00,
2013-05-19 15:40:00,88.1,70.4,29.83,SSE,165,3.0,5.0,56,0.00,CLR,,0.00,0.0,WeatherDisplay:10.37,2013-05-19 20:40:00,
2013-05-19 15:50:00,87.9,70.8,29.83,South,185,2.0,7.0,57,0.00,CLR,,0.00,0.0,WeatherDisplay:10.37,2013-05-19 20:50:00,
2013-05-19 16:00:00,88.6,70.9,29.83,South,175,5.0,7.0,56,0.00,CLR,,0.00,0.0,WeatherDisplay:10.37,2013-05-19 21:00:00,
2013-05-19 16:10:00,88.8,71.1,29.83,South,187,3.0,7.0,56,0.00,CLR,,0.00,0.0,WeatherDisplay:10.37,2013-05-19 21:10:00,
2013-05-19 16:20:00,88.7,71.0,29.83,SSW,204,5.0,9.0,56,0.00,CLR,,0.00,0.0,WeatherDisplay:10.37,2013-05-19 21:20:00,
2013-05-19 16:30:00,88.6,71.4,29.83,South,178,2.0,7.0,57,0.00,CLR,,0.00,0.0,WeatherDisplay:10.37,2013-05-19 21:30:00,
2013-05-19 16:40:00,88.3,71.6,29.83,South,183,2.0,8.0,58,0.00,CLR,,0.00,0.0,WeatherDisplay:10.37,2013-05-19 21:40:00,
2013-05-19 16:50:00,88.6,71.9,29.83,South,188,2.0,6.0,58,0.00,CLR,,0.00,0.0,WeatherDisplay:10.37,2013-05-19 21:50:00,
2013-05-19 17:00:00,88.6,70.9,29.82,South,187,5.0,9.0,56,0.00,CLR,,0.00,0.0,WeatherDisplay:10.37,2013-05-19 22:00:00,
2013-05-19 17:10:00,89.0,70.7,29.82,South,186,2.0,7.0,55,0.00,CLR,,0.00,0.0,WeatherDisplay:10.37,2013-05-19 22:10:00,
2013-05-19 17:20:00,88.8,71.1,29.82,SSW,195,3.0,10.0,56,0.00,CLR,,0.00,0.0,WeatherDisplay:10.37,2013-05-19 22:20:00,
2013-05-19 17:30:00,88.7,69.9,29.82,SSE,162,2.0,10.0,54,0.00,CLR,,0.00,0.0,WeatherDisplay:10.37,2013-05-19 22:30:00,
2013-05-19 17:40:00,88.7,69.4,29.82,South,184,5.0,9.0,53,0.00,CLR,,0.00,0.0,WeatherDisplay:10.37,2013-05-19 22:40:00,
2013-05-19 17:50:00,88.3,68.4,29.81,South,182,3.0,9.0,52,0.00,CLR,,0.00,0.0,WeatherDisplay:10.37,2013-05-19 22:50:00,
2013-05-19 18:00:00,87.7,68.4,29.81,South,173,5.0,8.0,53,0.00,CLR,,0.00,0.0,WeatherDisplay:10.37,2013-05-19 23:00:00,
2013-05-19 18:10:00,87.6,68.9,29.81,South,171,3.0,7.0,54,0.00,CLR,,0.00,0.0,WeatherDisplay:10.37,2013-05-19 23:10:00,
2013-05-19 18:20:00,87.4,69.8,29.80,SSE,165,3.0,8.0,56,0.00,CLR,,0.00,0.0,WeatherDisplay:10.37,2013-05-19 23:20:00,
2013-05-19 18:30:00,87.3,69.7,29.81,SSE,167,3.0,9.0,56,0.00,CLR,,0.00,0.0,WeatherDisplay:10.37,2013-05-19 23:30:00,
2013-05-19 18:40:00,86.7,69.1,29.81,SSW,193,2.0,10.0,56,0.00,CLR,,0.00,0.0,WeatherDisplay:10.37,2013-05-19 23:40:00,
2013-05-19 18:50:00,86.0,68.5,29.80,South,177,2.0,6.0,56,0.00,CLR,,0.00,0.0,WeatherDisplay:10.37,2013-05-19 23:50:00,
2013-05-19 19:00:00,85.4,67.9,29.80,South,182,2.0,7.0,56,0.00,CLR,,0.00,0.0,WeatherDisplay:10.37,2013-05-20 00:00:00,
2013-05-19 19:10:00,84.7,68.3,29.80,SSE,166,1.0,6.0,58,0.00,CLR,,0.00,0.0,WeatherDisplay:10.37,2013-05-20 00:10:00,
2013-05-19 19:20:00,84.0,68.6,29.80,SE,144,1.0,5.0,60,0.00,CLR,,0.00,0.0,WeatherDisplay:10.37,2013-05-20 00:20:00,
2013-05-19 19:30:00,83.3,69.0,29.80,SSE,151,2.0,5.0,62,0.00,CLR,,0.00,0.0,WeatherDisplay:10.37,2013-05-20 00:30:00,
2013-05-19 19:40:00,82.5,69.1,29.80,SSE,161,1.0,4.0,64,0.00,CLR,,0.00,0.0,WeatherDisplay:10.37,2013-05-20 00:40:00,
2013-05-19 19:50:00,82.1,69.1,29.81,SSE,153,2.0,5.0,65,0.00,CLR,,0.00,0.0,WeatherDisplay:10.37,2013-05-20 00:50:00,
2013-05-19 20:00:00,81.4,69.0,29.81,SE,142,2.0,4.0,66,0.00,CLR,,0.00,0.0,WeatherDisplay:10.37,2013-05-20 01:00:00,
2013-05-19 20:10:00,80.8,69.2,29.81,South,182,2.0,5.0,68,0.00,CLR,,0.00,0.0,WeatherDisplay:10.37,2013-05-20 01:10:00,
2013-05-19 20:20:00,80.4,69.7,29.81,SSE,154,2.0,6.0,70,0.00,CLR,,0.00,0.0,WeatherDisplay:10.37,2013-05-20 01:20:00,
2013-05-19 20:30:00,80.0,69.8,29.81,South,173,3.0,8.0,71,0.00,CLR,,0.00,0.0,WeatherDisplay:10.37,2013-05-20 01:30:00,
2013-05-19 20:40:00,79.7,69.9,29.81,SSE,167,3.0,9.0,72,0.00,CLR,,0.00,0.0,WeatherDisplay:10.37,2013-05-20 01:40:00,
2013-05-19 20:50:00,79.5,70.1,29.82,SSE,147,2.0,7.0,73,0.00,CLR,,0.00,0.0,WeatherDisplay:10.37,2013-05-20 01:50:00,
2013-05-19 21:00:00,79.2,69.7,29.82,SSE,165,3.0,8.0,73,0.00,CLR,,0.00,0.0,WeatherDisplay:10.37,2013-05-20 02:00:00,
2013-05-19 21:10:00,79.2,69.4,29.83,South,177,3.0,9.0,72,0.00,CLR,,0.00,0.0,WeatherDisplay:10.37,2013-05-20 02:10:00,
2013-05-19 21:20:00,78.9,69.5,29.84,South,185,3.0,9.0,73,0.00,CLR,,0.00,0.0,WeatherDisplay:10.37,2013-05-20 02:20:00,
2013-05-19 21:30:00,78.7,69.3,29.84,South,171,3.0,8.0,73,0.00,CLR,,0.00,0.0,WeatherDisplay:10.37,2013-05-20 02:30:00,
2013-05-19 21:40:00,78.7,69.7,29.84,SSE,166,3.0,8.0,74,0.00,CLR,,0.00,0.0,WeatherDisplay:10.37,2013-05-20 02:40:00,
2013-05-19 21:50:00,78.6,70.0,29.84,South,173,2.0,9.0,75,0.00,CLR,,0.00,0.0,WeatherDisplay:10.37,2013-05-20 02:50:00,
2013-05-19 22:00:00,78.5,70.3,29.84,SSE,161,2.0,12.0,76,0.00,CLR,,0.00,0.0,WeatherDisplay:10.37,2013-05-20 03:00:00,
2013-05-19 22:10:00,78.2,70.7,29.85,South,181,2.0,10.0,78,0.00,CLR,,0.00,0.0,WeatherDisplay:10.37,2013-05-20 03:10:00,
2013-05-19 22:20:00,77.9,70.9,29.85,South,187,3.0,12.0,79,0.00,CLR,,0.00,0.0,WeatherDisplay:10.37,2013-05-20 03:20:00,
2013-05-19 22:30:00,77.8,70.8,29.85,SSE,162,3.0,13.0,79,0.00,CLR,,0.00,0.0,WeatherDisplay:10.37,2013-05-20 03:30:00,
2013-05-19 22:40:00,77.6,70.9,29.85,South,178,5.0,10.0,80,0.00,CLR,,0.00,0.0,WeatherDisplay:10.37,2013-05-20 03:40:00,
2013-05-19 22:50:00,77.3,70.7,29.85,SSW,192,3.0,12.0,80,0.00,CLR,,0.00,0.0,WeatherDisplay:10.37,2013-05-20 03:50:00,
2013-05-19 23:00:00,77.2,70.9,29.85,SSW,194,5.0,12.0,81,0.00,CLR,,0.00,0.0,WeatherDisplay:10.37,2013-05-20 04:00:00,
2013-05-19 23:10:00,76.9,70.6,29.86,South,169,3.0,8.0,81,0.00,CLR,,0.00,0.0,WeatherDisplay:10.37,2013-05-20 04:10:00,
2013-05-19 23:20:00,76.5,70.6,29.86,South,179,2.0,7.0,82,0.00,CLR,,0.00,0.0,WeatherDisplay:10.37,2013-05-20 04:20:00,
2013-05-19 23:30:00,76.0,70.1,29.86,South,188,1.0,7.0,82,0.00,CLR,,0.00,0.0,WeatherDisplay:10.37,2013-05-20 04:30:00,
2013-05-19 23:40:00,75.8,70.3,29.86,South,176,2.0,7.0,83,0.00,CLR,,0.00,0.0,WeatherDisplay:10.37,2013-05-20 04:40:00,
2013-05-19 23:50:00,75.4,69.9,29.86,South,177,2.0,7.0,83,0.00,CLR,,0.00,0.0,WeatherDisplay:10.37,2013-05-20 04:50:00,